Year,Month,Day,Hour,Minute,Value (Times are PST for windgust in km/hr)
2013,09,28,00,01,3.20
2013,09,28,00,02,4.80
2013,09,28,00,03,1.60
2013,09,28,00,08,1.60
2013,09,28,00,09,1.60
2013,09,28,00,10,3.20
2013,09,28,00,25,3.20
2013,09,28,00,26,3.20
2013,09,28,00,27,1.60
2013,09,28,00,28,1.60
2013,09,28,00,29,1.60
2013,09,28,00,34,1.60
2013,09,28,00,37,1.60
2013,09,28,00,46,1.60
2013,09,28,00,51,1.60
2013,09,28,01,19,1.60
2013,09,28,01,31,1.60
2013,09,28,01,32,3.20
2013,09,28,01,34,1.60
2013,09,28,02,07,1.60
2013,09,28,02,08,1.60
2013,09,28,02,09,3.20
2013,09,28,02,12,1.60
2013,09,28,02,57,1.60
2013,09,28,03,07,3.20
2013,09,28,03,08,3.20
2013,09,28,03,09,3.20
2013,09,28,03,10,4.80
2013,09,28,03,11,4.80
2013,09,28,03,12,6.40
2013,09,28,03,13,4.80
2013,09,28,03,14,1.60
2013,09,28,03,15,3.20
2013,09,28,03,16,4.80
2013,09,28,03,21,1.60
2013,09,28,03,22,1.60
2013,09,28,03,23,1.60
2013,09,28,03,24,1.60
2013,09,28,03,26,6.40
2013,09,28,03,27,6.40
2013,09,28,03,28,9.60
2013,09,28,03,29,9.60
2013,09,28,03,30,8.10
2013,09,28,03,31,6.40
2013,09,28,03,32,8.10
2013,09,28,03,33,9.60
2013,09,28,03,34,6.40
2013,09,28,03,35,6.40
2013,09,28,03,36,3.20
2013,09,28,03,37,3.20
2013,09,28,03,38,6.40
2013,09,28,03,39,6.40
2013,09,28,03,40,3.20
2013,09,28,03,41,6.40
2013,09,28,03,42,6.40
2013,09,28,03,43,6.40
2013,09,28,03,44,8.10
2013,09,28,03,45,4.80
2013,09,28,03,46,4.80
2013,09,28,03,47,4.80
2013,09,28,03,48,3.20
2013,09,28,03,49,3.20
2013,09,28,03,50,3.20
2013,09,28,03,51,4.80
2013,09,28,03,52,6.40
2013,09,28,03,53,4.80
2013,09,28,03,54,4.80
2013,09,28,03,55,4.80
2013,09,28,03,56,4.80
2013,09,28,03,57,4.80
2013,09,28,03,58,3.20
2013,09,28,03,59,3.20
2013,09,28,04,00,3.20
2013,09,28,04,01,3.20
2013,09,28,04,02,3.20
2013,09,28,04,13,3.20
2013,09,28,04,32,1.60
2013,09,28,04,33,3.20
2013,09,28,04,34,1.60
2013,09,28,04,35,1.60
2013,09,28,04,37,1.60
2013,09,28,04,38,1.60
2013,09,28,04,39,3.20
2013,09,28,04,40,1.60
2013,09,28,05,10,1.60
2013,09,28,05,11,3.20
2013,09,28,05,12,3.20
2013,09,28,05,13,3.20
2013,09,28,05,14,1.60
2013,09,28,05,15,3.20
2013,09,28,05,16,3.20
2013,09,28,05,23,1.60
2013,09,28,05,24,3.20
2013,09,28,05,25,6.40
2013,09,28,05,26,6.40
2013,09,28,05,27,11.30
2013,09,28,05,28,11.30
2013,09,28,05,29,9.60
2013,09,28,05,30,14.50
2013,09,28,05,31,12.90
2013,09,28,05,32,9.60
2013,09,28,05,33,12.90
2013,09,28,05,34,12.90
2013,09,28,05,35,11.30
2013,09,28,05,36,9.60
2013,09,28,05,37,11.30
2013,09,28,05,38,8.10
2013,09,28,05,39,8.10
2013,09,28,05,40,9.60
2013,09,28,05,41,9.60
2013,09,28,05,42,8.10
2013,09,28,05,43,9.60
2013,09,28,05,44,9.60
2013,09,28,05,45,14.50
2013,09,28,05,46,16.10
2013,09,28,05,47,11.30
2013,09,28,05,48,11.30
2013,09,28,05,49,11.30
2013,09,28,05,50,17.70
2013,09,28,05,51,17.70
2013,09,28,05,52,17.70
2013,09,28,05,53,16.10
2013,09,28,05,54,17.70
2013,09,28,05,55,17.70
2013,09,28,05,56,14.50
2013,09,28,05,57,12.90
2013,09,28,05,58,12.90
2013,09,28,05,59,20.90
2013,09,28,06,00,14.50
2013,09,28,06,01,20.90
2013,09,28,06,02,17.70
2013,09,28,06,03,14.50
2013,09,28,06,04,14.50
2013,09,28,06,05,17.70
2013,09,28,06,06,19.30
2013,09,28,06,07,19.30
2013,09,28,06,08,17.70
2013,09,28,06,09,20.90
2013,09,28,06,10,20.90
2013,09,28,06,11,20.90
2013,09,28,06,12,24.20
2013,09,28,06,13,24.20
2013,09,28,06,14,24.20
2013,09,28,06,15,29.00
2013,09,28,06,16,27.40
2013,09,28,06,17,24.20
2013,09,28,06,18,20.90
2013,09,28,06,19,24.20
2013,09,28,06,20,24.20
2013,09,28,06,21,24.20
2013,09,28,06,22,25.70
2013,09,28,06,23,20.90
2013,09,28,06,24,27.40
2013,09,28,06,25,24.20
2013,09,28,06,26,19.30
2013,09,28,06,27,29.00
2013,09,28,06,28,22.50
2013,09,28,06,29,20.90
2013,09,28,06,30,32.20
2013,09,28,06,31,27.40
2013,09,28,06,32,29.00
2013,09,28,06,33,29.00
2013,09,28,06,34,27.40
2013,09,28,06,35,24.20
2013,09,28,06,36,22.50
2013,09,28,06,37,29.00
2013,09,28,06,38,25.70
2013,09,28,06,39,24.20
2013,09,28,06,40,24.20
2013,09,28,06,41,30.60
2013,09,28,06,42,27.40
2013,09,28,06,43,25.70
2013,09,28,06,44,33.80
2013,09,28,06,45,25.70
2013,09,28,06,46,32.20
2013,09,28,06,47,24.20
2013,09,28,06,48,22.50
2013,09,28,06,49,27.40
2013,09,28,06,50,24.20
2013,09,28,06,51,33.80
2013,09,28,06,52,29.00
2013,09,28,06,53,30.60
2013,09,28,06,54,29.00
2013,09,28,06,55,30.60
2013,09,28,06,56,29.00
2013,09,28,06,57,33.80
2013,09,28,06,58,30.60
2013,09,28,06,59,38.60
2013,09,28,07,00,30.60
2013,09,28,07,01,30.60
2013,09,28,07,02,30.60
2013,09,28,07,03,29.00
2013,09,28,07,04,30.60
2013,09,28,07,05,33.80
2013,09,28,07,06,35.40
2013,09,28,07,07,30.60
2013,09,28,07,08,24.20
2013,09,28,07,09,24.20
2013,09,28,07,10,30.60
2013,09,28,07,11,32.20
2013,09,28,07,12,25.70
2013,09,28,07,13,22.50
2013,09,28,07,14,27.40
2013,09,28,07,15,29.00
2013,09,28,07,16,38.60
2013,09,28,07,17,43.50
2013,09,28,07,18,32.20
2013,09,28,07,19,35.40
2013,09,28,07,20,30.60
2013,09,28,07,21,37.00
2013,09,28,07,22,38.60
2013,09,28,07,23,38.60
2013,09,28,07,24,37.00
2013,09,28,07,25,37.00
2013,09,28,07,26,37.00
2013,09,28,07,27,40.20
2013,09,28,07,28,29.00
2013,09,28,07,29,32.20
2013,09,28,07,30,33.80
2013,09,28,07,31,37.00
2013,09,28,07,32,38.60
2013,09,28,07,33,35.40
2013,09,28,07,34,40.20
2013,09,28,07,35,33.80
2013,09,28,07,36,37.00
2013,09,28,07,37,35.40
2013,09,28,07,38,38.60
2013,09,28,07,39,40.20
2013,09,28,07,40,48.30
2013,09,28,07,41,43.50
2013,09,28,07,42,33.80
2013,09,28,07,43,40.20
2013,09,28,07,44,37.00
2013,09,28,07,45,41.80
2013,09,28,07,46,35.40
2013,09,28,07,47,38.60
2013,09,28,07,48,48.30
2013,09,28,07,49,37.00
2013,09,28,07,50,41.80
2013,09,28,07,51,40.20
2013,09,28,07,52,41.80
2013,09,28,07,53,38.60
2013,09,28,07,54,38.60
2013,09,28,07,55,32.20
2013,09,28,07,56,40.20
2013,09,28,07,57,40.20
2013,09,28,07,58,40.20
2013,09,28,07,59,33.80
2013,09,28,08,00,53.10
2013,09,28,08,01,43.50
2013,09,28,08,02,33.80
2013,09,28,08,03,40.20
2013,09,28,08,04,46.70
2013,09,28,08,05,35.40
2013,09,28,08,06,38.60
2013,09,28,08,07,30.60
2013,09,28,08,08,30.60
2013,09,28,08,09,33.80
2013,09,28,08,10,33.80
2013,09,28,08,11,24.20
2013,09,28,08,12,37.00
2013,09,28,08,13,33.80
2013,09,28,08,14,33.80
2013,09,28,08,15,30.60
2013,09,28,08,16,22.50
2013,09,28,08,17,27.40
2013,09,28,08,18,33.80
2013,09,28,08,19,16.10
2013,09,28,08,20,27.40
2013,09,28,08,21,29.00
2013,09,28,08,22,22.50
2013,09,28,08,23,16.10
2013,09,28,08,24,16.10
2013,09,28,08,25,24.20
2013,09,28,08,26,24.20
2013,09,28,08,27,19.30
2013,09,28,08,28,11.30
2013,09,28,08,29,14.50
2013,09,28,08,30,9.60
2013,09,28,08,31,9.60
2013,09,28,08,32,17.70
2013,09,28,08,33,12.90
2013,09,28,08,34,6.40
2013,09,28,08,35,9.60
2013,09,28,08,36,14.50
2013,09,28,08,37,8.10
2013,09,28,08,38,9.60
2013,09,28,08,39,11.30
2013,09,28,08,40,11.30
2013,09,28,08,41,19.30
2013,09,28,08,42,11.30
2013,09,28,08,43,16.10
2013,09,28,08,44,14.50
2013,09,28,08,45,14.50
2013,09,28,08,46,14.50
2013,09,28,08,47,22.50
2013,09,28,08,48,27.40
2013,09,28,08,49,12.90
2013,09,28,08,50,30.60
2013,09,28,08,51,22.50
2013,09,28,08,52,17.70
2013,09,28,08,53,14.50
2013,09,28,08,54,14.50
2013,09,28,08,55,19.30
2013,09,28,08,56,12.90
2013,09,28,08,57,32.20
2013,09,28,08,58,14.50
2013,09,28,08,59,17.70
2013,09,28,09,00,12.90
2013,09,28,09,01,22.50
2013,09,28,09,02,22.50
2013,09,28,09,03,24.20
2013,09,28,09,04,17.70
2013,09,28,09,05,20.90
2013,09,28,09,06,14.50
2013,09,28,09,07,11.30
2013,09,28,09,08,12.90
2013,09,28,09,09,9.60
2013,09,28,09,10,17.70
2013,09,28,09,11,19.30
2013,09,28,09,12,24.20
2013,09,28,09,13,16.10
2013,09,28,09,14,11.30
2013,09,28,09,15,16.10
2013,09,28,09,16,14.50
2013,09,28,09,17,12.90
2013,09,28,09,18,6.40
2013,09,28,09,19,6.40
2013,09,28,09,20,4.80
2013,09,28,09,21,8.10
2013,09,28,09,22,8.10
2013,09,28,09,23,6.40
2013,09,28,09,24,8.10
2013,09,28,09,25,1.60
2013,09,28,09,26,9.60
2013,09,28,09,27,3.20
2013,09,28,09,28,9.60
2013,09,28,09,29,20.90
2013,09,28,09,30,16.10
2013,09,28,09,31,6.40
2013,09,28,09,32,14.50
2013,09,28,09,33,6.40
2013,09,28,09,34,6.40
2013,09,28,09,35,8.10
2013,09,28,09,36,17.70
2013,09,28,09,37,6.40
2013,09,28,09,38,4.80
2013,09,28,09,39,8.10
2013,09,28,09,40,11.30
2013,09,28,09,41,8.10
2013,09,28,09,42,16.10
2013,09,28,09,43,4.80
2013,09,28,09,44,11.30
2013,09,28,09,45,14.50
2013,09,28,09,46,11.30
2013,09,28,09,47,12.90
2013,09,28,09,48,11.30
2013,09,28,09,49,9.60
2013,09,28,09,50,14.50
2013,09,28,09,51,6.40
2013,09,28,09,52,11.30
2013,09,28,09,53,4.80
2013,09,28,09,54,12.90
2013,09,28,09,55,16.10
2013,09,28,09,56,11.30
2013,09,28,09,57,9.60
2013,09,28,09,58,11.30
2013,09,28,09,59,11.30
2013,09,28,10,00,9.60
2013,09,28,10,01,6.40
2013,09,28,10,02,9.60
2013,09,28,10,03,4.80
2013,09,28,10,04,3.20
2013,09,28,10,05,1.60
2013,09,28,10,06,3.20
2013,09,28,10,07,1.60
2013,09,28,10,08,3.20
2013,09,28,10,09,6.40
2013,09,28,10,10,3.20
2013,09,28,10,11,6.40
2013,09,28,10,12,1.60
2013,09,28,10,13,4.80
2013,09,28,10,14,4.80
2013,09,28,10,15,4.80
2013,09,28,10,16,6.40
2013,09,28,10,17,3.20
2013,09,28,10,18,1.60
2013,09,28,10,19,4.80
2013,09,28,10,20,3.20
2013,09,28,10,21,1.60
2013,09,28,10,22,3.20
2013,09,28,10,23,3.20
2013,09,28,10,24,6.40
2013,09,28,10,25,4.80
2013,09,28,10,26,3.20
2013,09,28,10,27,4.80
2013,09,28,10,28,3.20
2013,09,28,10,29,1.60
2013,09,28,10,30,1.60
2013,09,28,10,31,4.80
2013,09,28,10,32,8.10
2013,09,28,10,33,4.80
2013,09,28,10,34,3.20
2013,09,28,10,35,4.80
2013,09,28,10,36,6.40
2013,09,28,10,37,3.20
2013,09,28,10,38,6.40
2013,09,28,10,39,3.20
2013,09,28,10,40,1.60
2013,09,28,10,41,4.80
2013,09,28,10,42,1.60
2013,09,28,10,43,3.20
2013,09,28,10,44,1.60
2013,09,28,10,45,4.80
2013,09,28,10,46,4.80
2013,09,28,10,47,3.20
2013,09,28,10,48,1.60
2013,09,28,10,49,3.20
2013,09,28,10,50,9.60
2013,09,28,10,51,14.50
2013,09,28,10,52,8.10
2013,09,28,10,53,11.30
2013,09,28,10,54,11.30
2013,09,28,10,55,11.30
2013,09,28,10,56,11.30
2013,09,28,10,57,14.50
2013,09,28,10,58,11.30
2013,09,28,10,59,14.50
2013,09,28,11,00,9.60
2013,09,28,11,01,11.30
2013,09,28,11,02,8.10
2013,09,28,11,03,8.10
2013,09,28,11,04,11.30
2013,09,28,11,05,6.40
2013,09,28,11,06,3.20
2013,09,28,11,07,8.10
2013,09,28,11,08,4.80
2013,09,28,11,09,8.10
2013,09,28,11,10,4.80
2013,09,28,11,11,1.60
2013,09,28,11,13,4.80
2013,09,28,11,14,4.80
2013,09,28,11,15,3.20
2013,09,28,11,16,4.80
2013,09,28,11,17,6.40
2013,09,28,11,18,1.60
2013,09,28,11,19,4.80
2013,09,28,11,20,3.20
2013,09,28,11,21,3.20
2013,09,28,11,22,3.20
2013,09,28,11,23,3.20
2013,09,28,11,24,3.20
2013,09,28,11,25,4.80
2013,09,28,11,26,3.20
2013,09,28,11,27,3.20
2013,09,28,11,28,1.60
2013,09,28,11,31,3.20
2013,09,28,11,32,6.40
2013,09,28,11,33,6.40
2013,09,28,11,34,1.60
2013,09,28,11,35,1.60
2013,09,28,11,36,3.20
2013,09,28,11,37,1.60
2013,09,28,11,38,1.60
2013,09,28,11,40,3.20
2013,09,28,11,41,1.60
2013,09,28,11,47,3.20
2013,09,28,11,48,3.20
2013,09,28,11,49,3.20
2013,09,28,11,50,1.60
2013,09,28,11,54,3.20
2013,09,28,11,55,3.20
2013,09,28,11,56,1.60
2013,09,28,11,57,3.20
2013,09,28,11,58,1.60
2013,09,28,12,00,1.60
2013,09,28,12,01,4.80
2013,09,28,12,02,4.80
2013,09,28,12,03,3.20
2013,09,28,12,04,1.60
2013,09,28,12,05,6.40
2013,09,28,12,06,4.80
2013,09,28,12,07,1.60
2013,09,28,12,08,1.60
2013,09,28,12,09,3.20
2013,09,28,12,10,6.40
2013,09,28,12,11,3.20
2013,09,28,12,12,4.80
2013,09,28,12,13,3.20
2013,09,28,12,14,9.60
2013,09,28,12,15,1.60
2013,09,28,12,16,1.60
2013,09,28,12,19,1.60
2013,09,28,12,20,4.80
2013,09,28,12,21,6.40
2013,09,28,12,22,3.20
2013,09,28,12,23,4.80
2013,09,28,12,24,4.80
2013,09,28,12,25,3.20
2013,09,28,12,26,3.20
2013,09,28,12,27,4.80
2013,09,28,12,38,1.60
2013,09,28,12,39,8.10
2013,09,28,12,52,1.60
2013,09,28,12,53,3.20
2013,09,28,12,54,1.60
2013,09,28,12,55,1.60
2013,09,28,12,56,3.20
2013,09,28,12,57,3.20
2013,09,28,12,58,4.80
2013,09,28,12,59,3.20
2013,09,28,13,06,1.60
2013,09,28,13,11,1.60
2013,09,28,13,14,3.20
2013,09,28,13,15,8.10
2013,09,28,13,16,6.40
2013,09,28,13,17,9.60
2013,09,28,13,18,8.10
2013,09,28,13,19,9.60
2013,09,28,13,20,16.10
2013,09,28,13,21,17.70
2013,09,28,13,22,11.30
2013,09,28,13,23,11.30
2013,09,28,13,24,3.20
2013,09,28,13,25,8.10
2013,09,28,13,26,3.20
2013,09,28,13,27,4.80
2013,09,28,13,28,6.40
2013,09,28,13,29,4.80
2013,09,28,13,30,6.40
2013,09,28,13,31,8.10
2013,09,28,13,32,4.80
2013,09,28,13,33,14.50
2013,09,28,13,34,4.80
2013,09,28,13,35,6.40
2013,09,28,13,36,14.50
2013,09,28,13,37,9.60
2013,09,28,13,38,8.10
2013,09,28,13,39,8.10
2013,09,28,13,40,11.30
2013,09,28,13,41,12.90
2013,09,28,13,42,11.30
2013,09,28,13,43,11.30
2013,09,28,13,44,9.60
2013,09,28,13,45,11.30
2013,09,28,13,46,8.10
2013,09,28,13,47,9.60
2013,09,28,13,48,3.20
2013,09,28,13,49,3.20
2013,09,28,13,50,1.60
2013,09,28,13,51,4.80
2013,09,28,13,52,4.80
2013,09,28,13,53,6.40
2013,09,28,13,54,4.80
2013,09,28,13,55,4.80
2013,09,28,13,56,8.10
2013,09,28,13,57,6.40
2013,09,28,13,58,6.40
2013,09,28,13,59,4.80
2013,09,28,14,00,3.20
2013,09,28,14,01,4.80
2013,09,28,14,03,1.60
2013,09,28,14,04,4.80
2013,09,28,14,05,3.20
2013,09,28,14,06,3.20
2013,09,28,14,08,3.20
2013,09,28,14,09,3.20
2013,09,28,14,12,1.60
2013,09,28,14,16,3.20
2013,09,28,14,17,1.60
2013,09,28,14,18,8.10
2013,09,28,14,19,8.10
2013,09,28,14,20,3.20
2013,09,28,14,21,1.60
2013,09,28,14,22,3.20
2013,09,28,14,23,4.80
2013,09,28,14,24,3.20
2013,09,28,14,26,3.20
2013,09,28,14,27,4.80
2013,09,28,14,28,6.40
2013,09,28,14,29,6.40
2013,09,28,14,30,14.50
2013,09,28,14,31,22.50
2013,09,28,14,32,16.10
2013,09,28,14,33,6.40
2013,09,28,14,34,8.10
2013,09,28,14,35,8.10
2013,09,28,14,36,6.40
2013,09,28,14,37,8.10
2013,09,28,14,38,8.10
2013,09,28,14,39,14.50
2013,09,28,14,40,9.60
2013,09,28,14,41,4.80
2013,09,28,14,42,8.10
2013,09,28,14,43,8.10
2013,09,28,14,44,8.10
2013,09,28,14,45,8.10
2013,09,28,14,46,19.30
2013,09,28,14,47,19.30
2013,09,28,14,48,9.60
2013,09,28,14,49,6.40
2013,09,28,14,50,6.40
2013,09,28,14,51,9.60
2013,09,28,14,52,4.80
2013,09,28,14,53,3.20
2013,09,28,14,54,4.80
2013,09,28,14,55,6.40
2013,09,28,14,56,17.70
2013,09,28,14,57,12.90
2013,09,28,14,58,9.60
2013,09,28,14,59,11.30
2013,09,28,15,00,9.60
2013,09,28,15,01,8.10
2013,09,28,15,02,9.60
2013,09,28,15,03,12.90
2013,09,28,15,04,12.90
2013,09,28,15,05,12.90
2013,09,28,15,06,9.60
2013,09,28,15,07,8.10
2013,09,28,15,08,9.60
2013,09,28,15,09,9.60
2013,09,28,15,10,6.40
2013,09,28,15,11,6.40
2013,09,28,15,12,4.80
2013,09,28,15,13,3.20
2013,09,28,15,14,3.20
2013,09,28,15,15,1.60
2013,09,28,15,16,3.20
2013,09,28,15,18,3.20
2013,09,28,15,19,4.80
2013,09,28,15,20,8.10
2013,09,28,15,21,9.60
2013,09,28,15,22,9.60
2013,09,28,15,23,6.40
2013,09,28,15,24,4.80
2013,09,28,15,25,4.80
2013,09,28,15,26,6.40
2013,09,28,15,27,8.10
2013,09,28,15,28,8.10
2013,09,28,15,29,8.10
2013,09,28,15,30,6.40
2013,09,28,15,31,8.10
2013,09,28,15,32,8.10
2013,09,28,15,33,9.60
2013,09,28,15,34,9.60
2013,09,28,15,35,6.40
2013,09,28,15,36,6.40
2013,09,28,15,37,6.40
2013,09,28,15,38,4.80
2013,09,28,15,39,3.20
2013,09,28,15,44,1.60
2013,09,28,15,45,3.20
2013,09,28,15,46,6.40
2013,09,28,15,47,6.40
2013,09,28,15,48,6.40
2013,09,28,15,49,4.80
2013,09,28,15,50,6.40
2013,09,28,15,51,6.40
2013,09,28,15,52,4.80
2013,09,28,15,53,6.40
2013,09,28,15,54,6.40
2013,09,28,15,55,11.30
2013,09,28,15,56,8.10
2013,09,28,15,57,3.20
2013,09,28,15,58,3.20
2013,09,28,15,59,3.20
2013,09,28,16,00,3.20
2013,09,28,16,01,3.20
2013,09,28,16,02,3.20
2013,09,28,16,03,4.80
2013,09,28,16,04,4.80
2013,09,28,16,05,4.80
2013,09,28,16,06,4.80
2013,09,28,16,07,6.40
2013,09,28,16,08,6.40
2013,09,28,16,09,6.40
2013,09,28,16,10,4.80
2013,09,28,16,11,8.10
2013,09,28,16,12,11.30
2013,09,28,16,13,11.30
2013,09,28,16,14,16.10
2013,09,28,16,15,8.10
2013,09,28,16,16,11.30
2013,09,28,16,17,11.30
2013,09,28,16,18,11.30
2013,09,28,16,19,9.60
2013,09,28,16,20,11.30
2013,09,28,16,21,9.60
2013,09,28,16,22,16.10
2013,09,28,16,23,6.40
2013,09,28,16,24,8.10
2013,09,28,16,25,9.60
2013,09,28,16,26,9.60
2013,09,28,16,27,14.50
2013,09,28,16,28,16.10
2013,09,28,16,29,14.50
2013,09,28,16,30,9.60
2013,09,28,16,31,14.50
2013,09,28,16,32,9.60
2013,09,28,16,33,6.40
2013,09,28,16,34,11.30
2013,09,28,16,35,12.90
2013,09,28,16,36,9.60
2013,09,28,16,37,9.60
2013,09,28,16,38,6.40
2013,09,28,16,39,4.80
2013,09,28,16,40,22.50
2013,09,28,16,41,8.10
2013,09,28,16,42,14.50
2013,09,28,16,43,14.50
2013,09,28,16,44,11.30
2013,09,28,16,45,11.30
2013,09,28,16,46,14.50
2013,09,28,16,47,17.70
2013,09,28,16,48,24.20
2013,09,28,16,49,9.60
2013,09,28,16,50,16.10
2013,09,28,16,51,11.30
2013,09,28,16,52,9.60
2013,09,28,16,53,9.60
2013,09,28,16,54,8.10
2013,09,28,16,55,11.30
2013,09,28,16,56,16.10
2013,09,28,16,57,14.50
2013,09,28,16,58,19.30
2013,09,28,16,59,9.60
2013,09,28,17,00,8.10
2013,09,28,17,01,17.70
2013,09,28,17,02,12.90
2013,09,28,17,03,12.90
2013,09,28,17,04,14.50
2013,09,28,17,05,14.50
2013,09,28,17,06,9.60
2013,09,28,17,07,8.10
2013,09,28,17,08,8.10
2013,09,28,17,09,9.60
2013,09,28,17,10,9.60
2013,09,28,17,11,11.30
2013,09,28,17,12,11.30
2013,09,28,17,13,16.10
2013,09,28,17,14,6.40
2013,09,28,17,15,11.30
2013,09,28,17,16,6.40
2013,09,28,17,17,4.80
2013,09,28,17,18,8.10
2013,09,28,17,19,14.50
2013,09,28,17,20,4.80
2013,09,28,17,21,8.10
2013,09,28,17,22,6.40
2013,09,28,17,23,4.80
2013,09,28,17,24,6.40
2013,09,28,17,25,6.40
2013,09,28,17,26,4.80
2013,09,28,17,27,6.40
2013,09,28,17,28,8.10
2013,09,28,17,29,6.40
2013,09,28,17,30,6.40
2013,09,28,17,31,9.60
2013,09,28,17,32,6.40
2013,09,28,17,33,4.80
2013,09,28,17,34,4.80
2013,09,28,17,35,4.80
2013,09,28,17,36,17.70
2013,09,28,17,37,9.60
2013,09,28,17,38,6.40
2013,09,28,17,39,6.40
2013,09,28,17,40,4.80
2013,09,28,17,41,9.60
2013,09,28,17,42,16.10
2013,09,28,17,43,9.60
2013,09,28,17,44,4.80
2013,09,28,17,45,4.80
2013,09,28,17,46,6.40
2013,09,28,17,47,6.40
2013,09,28,17,48,8.10
2013,09,28,17,49,4.80
2013,09,28,17,50,6.40
2013,09,28,17,51,4.80
2013,09,28,17,52,6.40
2013,09,28,17,53,8.10
2013,09,28,17,54,4.80
2013,09,28,17,55,4.80
2013,09,28,17,56,4.80
2013,09,28,17,57,8.10
2013,09,28,17,58,4.80
2013,09,28,17,59,3.20
2013,09,28,18,00,8.10
2013,09,28,18,01,4.80
2013,09,28,18,02,6.40
2013,09,28,18,03,4.80
2013,09,28,18,04,3.20
2013,09,28,18,05,4.80
2013,09,28,18,06,4.80
2013,09,28,18,07,8.10
2013,09,28,18,08,8.10
2013,09,28,18,09,4.80
2013,09,28,18,10,4.80
2013,09,28,18,11,4.80
2013,09,28,18,12,4.80
2013,09,28,18,13,4.80
2013,09,28,18,14,4.80
2013,09,28,18,15,6.40
2013,09,28,18,16,8.10
2013,09,28,18,17,9.60
2013,09,28,18,18,9.60
2013,09,28,18,19,9.60
2013,09,28,18,20,6.40
2013,09,28,18,21,9.60
2013,09,28,18,22,8.10
2013,09,28,18,23,9.60
2013,09,28,18,24,11.30
2013,09,28,18,25,11.30
2013,09,28,18,26,11.30
2013,09,28,18,27,6.40
2013,09,28,18,28,9.60
2013,09,28,18,29,9.60
2013,09,28,18,30,19.30
2013,09,28,18,31,20.90
2013,09,28,18,32,6.40
2013,09,28,18,33,6.40
2013,09,28,18,34,8.10
2013,09,28,18,35,11.30
2013,09,28,18,36,25.70
2013,09,28,18,37,11.30
2013,09,28,18,38,6.40
2013,09,28,18,39,6.40
2013,09,28,18,40,6.40
2013,09,28,18,41,22.50
2013,09,28,18,42,14.50
2013,09,28,18,43,17.70
2013,09,28,18,44,4.80
2013,09,28,18,45,8.10
2013,09,28,18,46,14.50
2013,09,28,18,47,14.50
2013,09,28,18,48,20.90
2013,09,28,18,49,20.90
2013,09,28,18,50,24.20
2013,09,28,18,51,8.10
2013,09,28,18,52,9.60
2013,09,28,18,53,16.10
2013,09,28,18,54,27.40
2013,09,28,18,55,11.30
2013,09,28,18,56,17.70
2013,09,28,18,57,14.50
2013,09,28,18,58,9.60
2013,09,28,18,59,4.80
2013,09,28,19,00,4.80
2013,09,28,19,01,6.40
2013,09,28,19,02,9.60
2013,09,28,19,03,9.60
2013,09,28,19,04,14.50
2013,09,28,19,05,8.10
2013,09,28,19,06,1.60
2013,09,28,19,07,6.40
2013,09,28,19,08,6.40
2013,09,28,19,09,8.10
2013,09,28,19,11,8.10
2013,09,28,19,12,6.40
2013,09,28,19,14,3.20
2013,09,28,19,15,6.40
2013,09,28,19,17,1.60
2013,09,28,19,18,3.20
2013,09,28,19,19,4.80
2013,09,28,19,20,1.60
2013,09,28,19,21,6.40
2013,09,28,19,22,8.10
2013,09,28,19,23,6.40
2013,09,28,19,24,1.60
2013,09,28,19,26,1.60
2013,09,28,19,27,8.10
2013,09,28,19,28,1.60
2013,09,28,19,29,1.60
2013,09,28,19,30,6.40
2013,09,28,19,31,1.60
2013,09,28,19,32,1.60
2013,09,28,19,33,4.80
2013,09,28,19,34,4.80
2013,09,28,19,36,3.20
2013,09,28,19,38,1.60
2013,09,28,19,40,1.60
2013,09,28,19,44,4.80
2013,09,28,19,45,3.20
2013,09,28,19,51,1.60
2013,09,28,19,53,4.80
2013,09,28,19,54,1.60
2013,09,28,19,55,4.80
2013,09,28,19,57,1.60
2013,09,28,19,59,1.60
2013,09,28,20,01,1.60
2013,09,28,20,02,1.60
2013,09,28,20,03,1.60
2013,09,28,20,04,3.20
2013,09,28,20,05,1.60
2013,09,28,20,08,3.20
2013,09,28,20,09,1.60
2013,09,28,20,10,3.20
2013,09,28,20,11,6.40
2013,09,28,20,12,9.60
2013,09,28,20,13,3.20
2013,09,28,20,14,8.10
2013,09,28,20,15,4.80
2013,09,28,20,16,6.40
2013,09,28,20,17,1.60
2013,09,28,20,19,1.60
2013,09,28,20,21,1.60
2013,09,28,20,22,3.20
2013,09,28,20,23,4.80
2013,09,28,20,27,3.20
2013,09,28,20,50,1.60
2013,09,28,20,53,1.60
2013,09,28,20,55,1.60
2013,09,28,20,57,3.20
2013,09,28,20,58,3.20
2013,09,28,21,01,8.10
2013,09,28,21,10,1.60
2013,09,28,21,11,1.60
2013,09,28,21,13,1.60
2013,09,28,21,14,4.80
2013,09,28,21,17,1.60
2013,09,28,21,19,6.40
2013,09,28,21,29,1.60
2013,09,28,21,30,1.60
2013,09,28,21,31,1.60
2013,09,28,21,34,1.60
2013,09,28,21,36,1.60
2013,09,28,21,46,1.60
2013,09,28,21,47,6.40
2013,09,28,21,48,4.80
2013,09,28,21,49,1.60
2013,09,28,21,50,6.40
2013,09,28,21,51,6.40
2013,09,28,21,52,4.80
2013,09,28,21,53,6.40
2013,09,28,21,54,4.80
2013,09,28,21,55,6.40
2013,09,28,21,56,6.40
2013,09,28,21,57,3.20
2013,09,28,21,58,1.60
2013,09,28,21,59,4.80
2013,09,28,22,00,6.40
2013,09,28,22,01,4.80
2013,09,28,22,02,17.70
2013,09,28,22,03,11.30
2013,09,28,22,04,11.30
2013,09,28,22,05,8.10
2013,09,28,22,06,6.40
2013,09,28,22,07,6.40
2013,09,28,22,08,8.10
2013,09,28,22,09,1.60
2013,09,28,22,13,1.60
2013,09,28,22,14,1.60
2013,09,28,22,28,3.20
2013,09,28,22,29,4.80
2013,09,28,22,30,4.80
2013,09,28,22,31,3.20
2013,09,28,22,32,6.40
2013,09,28,22,33,8.10
2013,09,28,22,34,8.10
2013,09,28,22,35,8.10
2013,09,28,22,36,4.80
2013,09,28,22,37,6.40
2013,09,28,22,38,3.20
2013,09,28,22,39,1.60
2013,09,28,22,58,1.60
2013,09,28,23,16,1.60
2013,09,28,23,22,1.60
2013,09,28,23,23,1.60
2013,09,28,23,26,1.60
2013,09,28,23,29,1.60
2013,09,28,23,30,4.80
2013,09,28,23,31,3.20
2013,09,28,23,57,1.60
2013,09,28,23,58,3.20
2013,09,28,23,59,4.80
